星链-30988 (STARLINK-30988 )

导读 | 星芒AI

STARLINK-30988 是 SpaceX Starlink 卫星互联网项目中的一颗低轨通信卫星。该卫星属于 Starlink 群体部署计划的一部分,旨在通过近地轨道卫星提供全球高速互联网服务。它运行在约 550 公里的轨道高度,配备先进通信设备,支持高速数据传输和低延迟通信。STARLINK-30988 的发射和运行有助于扩展 Starlink 网络的覆盖范围,提升偏远地区的网络接入能力,并为用户提供更稳定的互联网连接。

基本信息
目录编号:
58529
目录名称:
STARLINK-30988
国际标识:
2023-191X
轨道中心:
EARTH
卫星名称:
星链-30988
卫星全名:
星链-30988 (STARLINK-30988 )
卫星状态:
在轨 (已飞行694 天)
发射日期:
2023-12-07 UTC
国别 :
美国 (US)
星等 :
--
轨道信息
数据来源 国际轨道数据 AOE轨道数据
星历时间 2025-10-31T02:57:23+0800
18小时前
查看轨道信息
2025-10-27T03:00:00+0800
4天前
查看轨道信息
半长轴 6937.215km 6937.202km
偏心率 0.0001358 0.0001458
轨道倾角 43.005° 43.003°
近地点辐角 274.726° 253.054°
升交点赤经 91.593° 113.322°
平近点角 85.343° 55.520°
近地点 558.137km 558.055km
远地点 560.023km 560.079km
周期 95.838分钟 95.838分钟
每日圈数 15.025365 15.025408
详细信息
固有亮度:
5
最大亮度:
0.3
卫星平台:
Starlink v2.0 mini
覆盖范围:
全球
运营商:
太空探索技术公司
运营商所在国:
美国
制造商(研发单位):
太空探索技术公司
制造商所在国:
美国
使用方式:
暂无
卫星简介
星链(Starlink)计划是由太空探索技术公司(SpaceX)提出的一个巨型低轨卫星互联网星座项目,计划在2019年至2024年间在太空搭建由约1.2万颗卫星组成的“星链”网络,其中1584颗将部署在地球上空550千米处的近地轨道,并从2020年开始工作。该卫星仍在工作。
2D轨道图
3D轨道图
轨道高度分析图
轨道倾角分析图
轨道综合分析图
查看轨道综合分析图